C/2022 L1 ( Catalina )

Japanese version
Home page
Updated on November 26, 2022

---------------------------------------------------------------------

* Profile

Discovery Date June 4, 2022
Magnitude 19.3 mag
Discoverer Catalina Sky Survey

* Pictures

* Orbital Elements

Epoch 2022 Aug. 9.0 TT = JDT 2459800.5
T 2022 Sept. 28.24872 TT                                Rudenko
q   1.5915087            (2000.0)            P               Q
z  +0.0018701      Peri.   59.85343     -0.16160069     -0.67248961
 +/-0.0000063      Node   300.02468     -0.90481271     +0.39312897
e   0.9970238      Incl.  123.46859     +0.39395326     +0.62706247
>From 404 observations 2022 May 31-Oct. 17, mean residual 0".6.

* Finding Charts

* Magnitudes Graph

        m1 = 10.5 + 5 log d + 20.0 log r

---------------------------------------------------------------------

The orbital elements are published on M.P.E.C. 2022-U146.
The charts are made with StellaNavigator Ver.10 (AstroArts).
The magnitudes graphs are made with Comet for Windows.

---------------------------------------------------------------------

Copyright(C) Seiichi Yoshida (comet@aerith.net). All rights reserved.